Regional Weather Roundup
Issued by NWS New Orleans/Baton Rouge, LA

Home | Current Version | Previous Version | Graphics & Text | Print | Product List | Glossary On
Versions: 1 2 3 4 5 6 7 8 9 10 11 12 13 14 15 16 17 18 19 20 21 22 23 24 25 26 27 28 29 30 31 32 33 34 35 36 37 38 39 40 41 42 43 44 45 46 47 48 49 50
464
ASUS44 KLIX 280905
RWRLIX
NEW ORLEANS REGIONAL WEATHER ROUNDUP
NATIONAL WEATHER SERVICE NEW ORLEANS LA
300 AM CST FRI NOV 28 2014

NOTE: "FAIR" INDICATES FEW OR NO CLOUDS BELOW 12,000 FEET WITH NO
      SIGNIFICANT WEATHER AND/OR OBSTRUCTIONS TO VISIBILITY.
      SKY/WX - SKY CONDITION AND SIGNIFICANT WEATHER.
      TMP - AIR TEMPERATURE.     DP    - DEWPOINT TEMPERATURE.
      RH  - RELATIVE HUMIDITY.   PRES  - PRESSURE.
      HI  - HEAT INDEX.          WCI   - WIND CHILL INDEX.

*  THESE STATIONS ARE NOT NWS OR FAA STATIONS AND ARE NOT UNDER
   NWS QUALITY CONTROL.

LAZ038-040-048-061>063-065>067-069-281000-
SOUTHEAST LOUISIANA

CITY           SKY/WX    TMP DP  RH WIND       PRES   REMARKS
N.O. AUDUBON     N/A     45  36  71 MISG        N/A
N.O. INTL ARPT CLEAR     47  35  63 NE12      30.41F
N.O. LAKEFRONT CLEAR     47  36  65 NE17      30.43S
N.O. DOWNTOWN*   N/A     46  30  53 N6        30.42S
SLIDELL        CLEAR     35  30  82 CALM      30.43R
BATON ROUGE    CLEAR     36  31  82 NE5       30.43S WCI  32
BOOTHVILLE     CLEAR     52  42  69 NE8       30.40S
BELLE CHASSE   CLEAR     44  34  67 NE7       30.41S
BOGALUSA*        N/A     33  30  90 CALM      30.45S
NEW ROADS*       N/A     38  32  80 CALM      30.43F
GONZALES*        N/A     38  35  87 CALM      30.42S
HAMMOND*       CLEAR     37  32  81 NE3       30.45R
HOUMA*         CLEAR     39  36  89 CALM      30.42R
PORT FOURCHON* SUNNY     52  43  71 NE8       30.43S

$$

MSZ070-080>082-281000-
SOUTHERN MISSISSIPPI

CITY           SKY/WX    TMP DP  RH WIND       PRES   REMARKS
MCCOMB         CLEAR     36  29  75 NE5       30.42F WCI  32
GULFPORT       CLEAR     37  31  78 N5        30.42S WCI  33
BILOXI         CLEAR     38  32  77 NE10      30.41F WCI  31
PASCAGOULA     CLEAR     36  31  82 N7        30.42S WCI  30

$$

COASTAL OBSERVATIONS
LAKE AND NEARSHORE STATIONS

STATION/POSITION TIME  TEMP    WIND        PRES    WAVE
                       AIR SEA DIR/SP/G            HT/PER
                 (UTC) (F)     (DEG/KT/KT) (MB)    (FT/S)
PASCAGOULA       0900   40      30/  5/  8 1029.6
WAVELAND YACHT   0900   41      50/  9/ 11 1029.3
GRAND ISLE       0900   51 59   60/  8/ 11 1029.8
SOUTHWEST PASS   0900   53                 1028.9
NEW CANAL        0900   47 53   70/ 16/ 18 1030.0
SHELL BEACH      0900   48 50   40/ 16/ 18 1029.5

OFFSHORE STATIONS

STATION/POSITION TIME  TEMP    WIND        PRES    WAVE
                       AIR SEA DIR/SP/G            HT/PER
                 (UTC) (F)     (DEG/KT/KT) (MB)    (FT/S)
64 S DAUPHIN ISL 0839   54 71   40/ 16/ 19 1029.3    5/ 6

$$




USA.gov is the U.S. government's official web portal to all federal, state and local government web resources and services.